ELECTRON KICK STAGE R/B

Satellite information

Favourite Embed

Satellite Type and Status

ROCKET BODYIN ORBIT

Key statistics

Satellite ELECTRON KICK STAGE R/B at a glance.

Uptime

643

Days in orbit

Revolutions

≈ 15.2

Per day

Orbit

SSO

Sun Synchronous Orbit

Inclination

97.6

Latest

Satellite identification and parameters

Extended collection of information and parameters for ELECTRON KICK STAGE R/B.

Object identification

Identified? True

Debris? False

Object name: ELECTRON KICK STAGE R/B

International designator: 2024-047B

Object number (NORAD): 59225

Object ID (CCSDS): 59225

Country: UNITED STATES OF AMERICA (US)

Current information (Y/N): Y

RCS size: MEDIUM

Orbital parameters

Period: 94.504 minutes

Inclination: 97.6244 deg

SMA: 6872.693 km

Apoapsis: 499.814 km

Periapsis: 489.303 km

RAAN: 319.2783 deg

Eccentricy: 0.00076469

Argument of periapsis: 316.9263 deg

Mean anomaly: 43.1374 deg

Mean motion: 15.23745136 rev/day

Mean motion (dot): 0.00021395 rev/day2

B* drag term: 0.00089063848 1/REarth

Two-line elements (TLE)

Creation date: Dec. 14, 2025, 11:30 a.m.

Reference frame: TEME

Reference center: EARTH

Epoch: Dec. 13, 2025, 9:15 p.m. UTC

TLE line 0: 0 ELECTRON KICK STAGE R/B

TLE line 1: 1 59225U 24047B 25347.88549717 .00021395 00000-0 89064-3 0 9990

TLE line 2: 2 59225 97.6244 319.2783 0007647 316.9263 43.1374 15.23745136 96884

Live tracking on map

Real-time ground track for satellite ELECTRON KICK STAGE R/B.

In-orbit conjunctions

A list of the most updated potential collisions computed for object ELECTRON KICK STAGE R/B.

Target Orbit TCA Probability of collision Miss distance Type
OBJECT J SSO 2025-11-07 13:32:02 0.0004650477 261.0 (m) UNKNOWN
OBJECT A SSO 2025-11-04 21:37:31 0.009294791 151.0 (m) UNKNOWN
CZ-4B DEB SSO 2025-01-28 18:39:04 0.0002056074 205.0 (m) DEBRIS

Associated space launch

StriX-3 is a synthetic aperture radar satellite for Japanese Earth imaging company Synspective. It can gather high resolution Earth observation data regardless of conditions or daylight, offering a resilient and effective resource for the purposes of urban development, infrastructure monitoring, and disaster response.

ELECTRON KICK STAGE R/B was lifted into orbit during the mission ‘Electron | Owl Night Long (StriX-3)’, on board a Electron space rocket.

The launch took place on March 12, 2024, 3:03 p.m. from Rocket Lab Launch Complex 1B.

For more information about the launch, click the button.

Launch to space Electron | Owl Night Long (StriX-3)
Electron | Owl Night Long (StriX-3)

Agency: Synspective

Status: Launch Successful

Launch date: March 12, 2024, 3:03 p.m. UTC

Rocket: Electron

Launch pad: Rocket Lab Launch Complex 1B

Location: Rocket Lab Launch Complex 1, Mahia Peninsula, New Zealand

...

Latest news about this satellite

News about space launch
Rocket Lab launches Synspective radar imaging satellite

Rocket Lab launched a radar imaging satellite for Japanese company Synspective March 12, the latest in a series of launches for that company.

News about space launch
Rocket Lab prepares for the ‘Owl Night Long’ mission

Rocket Lab is currently targeting no earlier than Wednesday, March 13th to launch Synspectives’ Strix-3 satellite to a Sun-synchronous orbit from Pad...


Newsletter sign-up

Weekly statistics, charts and insights to help you stay on top of the space industry.